This demonstration page uses our WeatherBlox Daily Observations layout. Learn more.

Left ArrowRight Arrow

Hourly Observations for March 13, 2018

Temp ( °F °C ) Dew Point ( °F °C ) Humidity (%) Winds ( mph kmh ) Pressure ( in mb ) Visibility ( mi km ) Precip ( " mm )
12:54 am 00:54 Clear 28 -2.2 24 -4.4 85 85 NNW 5 7 30.42 1030 10 16 0.00 0.00
1:54 am 01:54 Clear 28 -2.2 22 -5.6 78 78 N 5 7 30.42 1030 10 16 0.00 0.00
2:54 am 02:54 Clear 28 -2.2 23 -5 81 81 NNW 5 7 30.42 1030 10 16 0.00 0.00
3:54 am 03:54 Clear 27 -2.8 23 -5 85 85 NNW 8 13 30.41 1030 10 16 0.00 0.00
4:54 am 04:54 Clear 27 -2.8 22 -5.6 81 81 NNW 8 13 30.42 1030 10 16 0.00 0.00
5:54 am 05:54 Clear 24 -4.4 20 -6.7 84 84 NNW 7 11 30.44 1031 9 14 0.00 0.00
6:54 am 06:54 Clear 25 -3.9 21 -6.1 85 85 NW 5 7 30.45 1031 10 16 0.00 0.00
7:54 am 07:54 Sunny 24 -4.4 20 -6.7 84 84 NNW 5 7 30.48 1032 9 14 0.00 0.00
8:54 am 08:54 Sunny 27 -2.8 21 -6.1 78 78 NNW 7 11 30.50 1033 10 16 0.00 0.00
9:54 am 09:54 Sunny 31 -0.6 21 -6.1 67 67 N 14 22 30.50 1033 10 16 0.00 0.00
10:54 am 10:54 Sunny 36 2.2 21 -6.1 55 55 N 9 15 30.51 1033 10 16 0.00 0.00
11:54 am 11:54 Sunny 39 3.9 20 -6.7 46 46 N 9 15 30.50 1033 10 16 0.00 0.00
12:54 pm 12:54 Sunny 43 6.1 16 -8.9 34 34 N 6 9 30.48 1032 10 16 0.00 0.00
1:54 pm 13:54 Sunny 46 7.8 15 -9.4 29 29 N 6 9 30.45 1031 10 16 0.00 0.00
2:54 pm 14:54 Sunny 49 9.4 13 -10.6 23 23 N 10 17 30.42 1030 10 16 0.00 0.00
3:54 pm 15:54 Sunny 50 10 10 -12.2 20 20 NNE 13 20 30.41 1030 10 16 0.00 0.00
4:54 pm 16:54 Sunny 50 10 10 -12.2 20 20 N 10 17 30.40 1029 10 16 0.00 0.00
5:54 pm 17:54 Sunny 49 9.4 11 -11.7 21 21 NE 10 17 30.39 1029 10 16 0.00 0.00
6:54 pm 18:54 Sunny 45 7.2 11 -11.7 25 25 NNE 9 15 30.39 1029 10 16 0.00 0.00
7:54 pm 19:54 Clear 35 1.7 11 -11.7 37 37 ENE 6 9 30.39 1029 10 16 0.00 0.00
8:54 pm 20:54 Clear 37 2.8 12 -11.1 36 36 N 3 6 30.38 1029 10 16 0.00 0.00
9:54 pm 21:54 Clear 28 -2.2 14 -10 56 56 Calm 30.38 1029 10 16 0.00 0.00
10:54 pm 22:54 Clear 23 -5 14 -10 68 68 Calm 30.37 1028 10 16 0.00 0.00
11:54 pm 23:54 Clear 23 -5 13 -10.6 65 65 Calm 30.35 1028 10 16 0.00 0.00

Powered by AerisWeather